sat.trackr.live / text

‹ back to catalog

STARLINK-5574

NORAD 55362 · 2023-013AH

PAYLOAD ACTIVE UNKNOWN

§ Identity

Operator
Country
US
Launch date
2023-01-26
Launch site
AFETR
Launch vehicle
Mass (kg)
RCS (m²)

Purposes: comms

External: N2YO · Heavens-Above · Gunter

§ Orbital elements

Epoch: 2026-05-24T22:01:51.306816Z

Period
94.27 min
Inclination
43.0018°
Eccentricity
0.0001463
Mean motion
15.27577437 rev/d
Perigee alt
482.1 km
Apogee alt
484.1 km
Semi-major
6,861.2 km
B*
6.0380e-6
RAAN
218.0212°
Arg perigee
279.7262°
Mean anomaly
80.3425°
Rev number
18,350

§ Raw data

STARLINK-55741 55362U 23013AH  26144.91795494 -.00000096  00000+0  60380-5 0  99922 55362  43.0018 218.0212 0001463 279.7262  80.3425 15.27577437183501

JSON: /api/v1/satellites/55362 · /tle

For live sub-satellite position, see the globe view (requires WebGL).

§ Visibility from observer

Set your observer location to see the next 7 days of passes ≥ 10°. The values pass through the URL so the page stays shareable.

No JS? Fill the form by hand. The geolocation button needs JavaScript.